{"data":{"norad_id":64377,"epoch":"2026-05-23T22:21:36.250848Z","epoch_age_seconds":167245,"freshness":"FRESH","line1":"1 64377U 25127H   26143.93166957  .00145906  00000+0  11196-2 0  9990","line2":"2 64377  43.0000 351.2090 0002333 277.0246  83.0356 15.70863265 55339","mean_motion":15.70863265,"eccentricity":0.0002333,"inclination_deg":43,"raan_deg":351.209,"arg_perigee_deg":277.0246,"mean_anomaly_deg":83.0356,"bstar":0.0011196,"rev_number":5533,"period_min":91.669340806693,"perigee_km":354.85739251843,"apogee_km":357.99974081184,"semimajor_km":6734.5655666651,"source":"CELESTRAK","updated_at":"2026-05-25T13:38:20.410832Z"}}